[[{"header":{"parameterUnit":"m.s-1","parameterCategory":1,"la1":30.2991,"la2":30.254,"lo1":-89.0895,"lo2":-89.0444,"dy":0.0017,"dx":0.0017,"nx":28,"ny":28,"refTime":"2025-12-14T03:00:00:Z","depth":0,"parameterNumber":2,"parameterNumberName":"U-component_of_WINDS"},"data":[0,0,0,0,0,0,0,0,0,0,0,0,0,0,0,0,0,0,0,0,0,0,0,0,0,0,0,0,0,0,0,0,0,0,0,0,0,0,0,0,0,0,0,0,0,0,0,0,0,0,0,0,0,0,0,0,0,0,1.1349,1.1349,0,1.1389,1.1389,1.139,1.1386,1.1386,1.1385,1.1385,1.1426,1.1427,1.1429,0,0,0,0,0,0,0,0,0,0,0,0,0,1.1273,1.1274,1.1349,1.1349,1.135,1.1389,1.1389,1.139,1.1387,1.1386,1.1385,1.1384,1.1425,1.1427,1.1429,0,0,0,0,0,0,0,0,0,0,0,0,0,1.1308,1.1274,1.1349,1.1353,1.1354,1.1388,1.1389,1.139,1.1387,1.1386,1.1385,1.1384,1.1424,1.1427,1.1429,1.1463,0,0,1.1437,1.1438,0,0,0,0,0,0,0,0,1.1306,1.1311,1.1352,1.1353,1.1354,1.1382,1.1377,1.1414,1.1387,1.1374,1.1385,1.1384,1.1412,1.1415,1.1425,1.1464,1.1466,1.1437,1.1439,1.144,1.144,0,0,0,0,0,0,0,1.1304,1.1309,1.1365,1.1352,1.1354,1.1354,1.1358,1.1384,1.1398,1.1375,1.1375,1.138,1.1412,1.1422,1.1426,1.1467,1.1437,1.1439,1.1441,1.1442,1.154,1.1541,0,0,0,0,0,0,1.13,1.1307,1.1363,1.1366,1.1327,1.1356,1.136,1.1374,1.1397,1.14,1.1381,1.138,1.1419,1.1423,1.1427,1.147,1.144,1.1442,1.1443,1.1538,1.154,1.1541,0,0,0,0,0,0,1.1299,1.1305,1.1362,1.1337,1.1344,1.1358,1.1373,1.1375,1.1385,1.1401,1.1404,1.1388,1.1418,1.1424,1.1455,1.1471,1.1443,1.1445,1.1537,1.1539,1.154,1.1554,0,0,0,0,0,0,1.1296,1.1305,1.1317,1.1337,1.1345,1.1388,1.1374,1.1376,1.1389,1.1388,1.1409,1.1412,1.1418,1.1451,1.1457,1.1474,1.1447,1.1536,1.1538,1.154,1.1552,1.1556,1.1559,0,0,0,0,0,1.1294,1.1318,1.1317,1.1324,1.136,1.1389,1.1393,1.1399,1.139,1.1403,1.1414,1.1411,1.1468,1.1454,1.1461,1.1479,1.1535,1.1537,1.154,1.155,1.1555,1.1559,0,0,0,0,0,0,1.1298,1.1321,1.132,1.1351,1.1368,1.1388,1.1404,1.1404,1.1423,1.1421,1.1429,1.1433,1.1465,1.1475,1.1459,1.1514,1.15,1.1504,1.1506,1.1511,1.1514,1.1511,1.1449,0,0,0,0,0,1.1303,1.1324,1.1342,1.1368,1.1377,1.1389,1.1402,1.1405,1.1423,1.143,1.1443,1.1461,1.1483,1.1497,1.1518,1.1554,1.1559,1.157,1.1573,1.1576,1.1579,1.1601,1.1607,1.1549,1.1549,1.1549,0,0,1.1313,1.1328,1.134,1.137,1.1383,1.1406,1.1395,1.1418,1.1435,1.1433,1.1464,1.1475,1.1495,1.1529,1.1545,1.1538,1.1597,1.1579,1.1581,1.1583,1.1605,1.161,1.1615,1.1551,1.1551,1.155,0,0,1.1342,1.1355,1.1379,1.1394,1.1415,1.1423,1.1429,1.145,1.1457,1.1488,1.1488,1.1509,1.1546,1.1562,1.1574,1.1614,1.1613,1.1621,1.1639,1.166,1.1665,1.1669,1.1685,1.169,1.1624,1.1624,1.1624,0,1.1352,1.1385,1.1392,1.1416,1.143,1.1431,1.1457,1.147,1.1497,1.1507,1.15,1.1549,1.1563,1.1602,1.1612,1.1621,1.163,1.1618,1.1664,1.1668,1.1672,1.1687,1.1693,1.1625,1.1625,1.1625,1.1625,0,1.1397,1.142,1.1437,1.1465,1.1481,1.1505,1.1517,1.1533,1.1536,1.1546,1.1579,1.1596,1.1622,1.1632,1.1634,1.1672,1.1668,1.1662,1.1649,1.1678,1.1693,1.1699,1.1626,1.1626,1.1626,1.1626,0,0,1.1428,1.1461,1.1467,1.1481,1.1506,1.1524,1.1551,1.1577,1.1591,1.161,1.1633,1.1667,1.1663,1.1677,1.1682,1.1701,1.1734,1.1694,1.1694,1.1702,1.178,1.1784,1.1791,1.1734,1.1735,1.1736,1.1779,0,1.1461,1.1507,1.1516,1.1556,1.1579,1.1582,1.1605,1.1624,1.1635,1.1657,1.1669,1.1693,1.1685,1.1694,1.1713,1.1726,1.175,1.1723,1.1757,1.1758,1.1752,1.1798,1.1802,1.1842,1.1784,1.1785,1.1786,0,1.1505,1.1527,1.157,1.1595,1.1605,1.1625,1.1652,1.1672,1.1694,1.1701,1.1719,1.1723,1.1752,1.1738,1.1779,1.1761,1.1776,1.1785,1.1787,1.179,1.1774,1.1804,1.1854,1.186,1.1794,1.1794,1.1793,0,1.1526,1.1566,1.1598,1.1609,1.1638,1.1653,1.1666,1.1687,1.1704,1.1727,1.1738,1.1764,1.1779,1.18,1.1811,1.1799,1.1853,1.1839,1.186,1.186,1.1871,1.187,1.1925,1.1879,1.1879,1.1879,1.1879,0,1.1562,1.1589,1.1608,1.1627,1.1658,1.1669,1.17,1.1712,1.1732,1.1755,1.1759,1.1781,1.1795,1.1819,1.1828,1.1863,1.1869,1.1876,1.1879,1.1876,1.1876,1.1886,1.1884,1.1881,1.188,1.188,1.188,0,1.159,1.1603,1.1639,1.1664,1.1672,1.1693,1.1716,1.1736,1.1748,1.1778,1.1785,1.1804,1.1833,1.1847,1.1883,1.189,1.1929,1.1929,1.1922,1.1923,1.1944,1.1943,1.2008,1.2018,1.1965,1.1965,1.1966,0,1.1612,1.1633,1.1662,1.1678,1.1692,1.1717,1.1734,1.1746,1.1764,1.1793,1.1811,1.184,1.1865,1.1912,1.1929,1.1958,1.1959,1.198,1.1963,1.1961,1.1961,1.196,1.1963,1.1983,1.1984,1.1984,1.1985,0,1.1651,1.1658,1.1682,1.171,1.173,1.1753,1.1775,1.1788,1.1804,1.1824,1.1855,1.1874,1.1912,1.1942,1.1973,1.1987,1.199,1.199,1.1997,1.1995,1.199,1.1995,1.1931,1.1988,1.1988,1.1988,1.1987,1.1987,1.1677,1.1697,1.1721,1.1749,1.1768,1.1789,1.181,1.1826,1.1851,1.1883,1.1889,1.1922,1.1948,1.1989,1.2005,1.2032,1.2027,1.2036,1.2039,1.2041,1.2043,1.1986,1.2037,1.2037,1.2037,1.2037,1.2037,0,1.1718,1.1734,1.176,1.1791,1.1814,1.1815,1.184,1.1859,1.1888,1.1912,1.1936,1.1973,1.2003,1.2024,1.2056,1.2073,1.2076,1.2081,1.208,1.2084,1.2045,1.2036,1.2079,1.2079,1.2079,1.2079,1.2079,1.2079,1.1741,1.1776,1.1786,1.183,1.1847,1.1879,1.1894,1.1915,1.1934,1.1974,1.2,1.2014,1.2037,1.207,1.2099,1.2105,1.2117,1.2123,1.2129,1.2091,1.2087,1.2082,1.2075,1.2125,1.2125,1.2166,1.2166,1.2167]},{"header":{"parameterUnit":"m.s-1","parameterCategory":1,"la1":30.2991,"la2":30.254,"lo1":-89.0895,"lo2":-89.0444,"dy":0.0017,"dx":0.0017,"nx":28,"ny":28,"refTime":"2025-12-14T03:00:00:Z","depth":0,"parameterNumber":3,"parameterNumberName":"V-component_of_WINDS"},"data":[0,0,0,0,0,0,0,0,0,0,0,0,0,0,0,0,0,0,0,0,0,0,0,0,0,0,0,0,0,0,0,0,0,0,0,0,0,0,0,0,0,0,0,0,0,0,0,0,0,0,0,0,0,0,0,0,0,0,-2.898,-2.898,0,-2.8983,-2.8983,-2.8983,-2.8953,-2.8952,-2.8951,-2.8951,-2.8952,-2.8953,-2.8954,0,0,0,0,0,0,0,0,0,0,0,0,0,-2.8947,-2.8948,-2.898,-2.898,-2.898,-2.8983,-2.8983,-2.8983,-2.8953,-2.8952,-2.8951,-2.895,-2.8952,-2.8953,-2.8954,0,0,0,0,0,0,0,0,0,0,0,0,0,-2.8957,-2.8948,-2.898,-2.8965,-2.8964,-2.8983,-2.8983,-2.8983,-2.8953,-2.8952,-2.8951,-2.895,-2.8952,-2.8953,-2.8954,-2.8986,0,0,-2.8958,-2.8958,0,0,0,0,0,0,0,0,-2.8957,-2.8958,-2.8967,-2.8966,-2.8965,-2.8966,-2.8972,-2.8984,-2.8954,-2.8957,-2.8951,-2.8949,-2.8958,-2.8959,-2.8962,-2.8987,-2.8987,-2.8958,-2.8959,-2.8959,-2.896,0,0,0,0,0,0,0,-2.8956,-2.8958,-2.8981,-2.8968,-2.8966,-2.8959,-2.8959,-2.8974,-2.8964,-2.8957,-2.8955,-2.8956,-2.8957,-2.8961,-2.8962,-2.8987,-2.8958,-2.8959,-2.896,-2.896,-2.904,-2.9042,0,0,0,0,0,0,-2.8957,-2.8958,-2.8981,-2.8981,-2.8958,-2.896,-2.896,-2.8967,-2.8964,-2.8963,-2.8957,-2.8954,-2.8959,-2.896,-2.8962,-2.9001,-2.8959,-2.896,-2.8961,-2.9039,-2.904,-2.9042,0,0,0,0,0,0,-2.8957,-2.896,-2.8981,-2.8969,-2.8971,-2.8962,-2.897,-2.8968,-2.8972,-2.8964,-2.8962,-2.8962,-2.8958,-2.896,-2.8981,-2.9,-2.8961,-2.8962,-2.9037,-2.9039,-2.9041,-2.9079,0,0,0,0,0,0,-2.8956,-2.896,-2.8972,-2.8969,-2.8972,-2.9,-2.8971,-2.8969,-2.8974,-2.8971,-2.8969,-2.8967,-2.8957,-2.8979,-2.8982,-2.9001,-2.8963,-2.9035,-2.9038,-2.9041,-2.9076,-2.9082,-2.9087,0,0,0,0,0,-2.8955,-2.8981,-2.8973,-2.8975,-2.8987,-2.9001,-2.9003,-2.8991,-2.8976,-2.8988,-2.8983,-2.8967,-2.8998,-2.8982,-2.8985,-2.9005,-2.9034,-2.9037,-2.904,-2.9073,-2.9081,-2.9087,0,0,0,0,0,0,-2.8985,-2.8981,-2.8971,-2.8997,-2.9,-2.8996,-2.9011,-2.8999,-2.9006,-2.9003,-2.8988,-2.8987,-2.9012,-2.901,-2.8992,-2.9037,-2.9013,-2.9017,-2.9037,-2.9044,-2.905,-2.905,-2.8964,0,0,0,0,0,-2.8995,-2.9008,-2.9003,-2.9027,-2.9029,-2.902,-2.9026,-2.9017,-2.9019,-2.902,-2.9017,-2.9019,-2.903,-2.9036,-2.9045,-2.9075,-2.9075,-2.909,-2.9096,-2.9101,-2.9104,-2.9122,-2.9129,-2.9052,-2.9052,-2.9052,0,0,-2.9015,-2.9014,-2.9023,-2.9033,-2.9034,-2.9048,-2.9021,-2.9036,-2.9047,-2.9022,-2.9043,-2.9041,-2.9042,-2.9069,-2.908,-2.9068,-2.9126,-2.9105,-2.9108,-2.911,-2.9126,-2.9133,-2.914,-2.9054,-2.9054,-2.9054,0,0,-2.906,-2.906,-2.9081,-2.9083,-2.9086,-2.908,-2.9085,-2.9084,-2.9082,-2.9102,-2.9085,-2.9097,-2.9114,-2.9117,-2.912,-2.9168,-2.9154,-2.9171,-2.9201,-2.9218,-2.9224,-2.923,-2.9248,-2.9255,-2.9175,-2.9175,-2.9175,0,-2.9085,-2.9105,-2.9093,-2.911,-2.9116,-2.9095,-2.9117,-2.9119,-2.9124,-2.9129,-2.9115,-2.9138,-2.9137,-2.9165,-2.9177,-2.918,-2.9186,-2.9172,-2.9224,-2.923,-2.9235,-2.9252,-2.9259,-2.9177,-2.9177,-2.9176,-2.9176,0,-2.9136,-2.9151,-2.9167,-2.9175,-2.9182,-2.9201,-2.9192,-2.9201,-2.9191,-2.9187,-2.9209,-2.9208,-2.9218,-2.9223,-2.9214,-2.925,-2.9243,-2.9227,-2.9203,-2.9244,-2.9261,-2.9267,-2.918,-2.9179,-2.9179,-2.9178,0,0,-2.9199,-2.9201,-2.9207,-2.9211,-2.9214,-2.9225,-2.9243,-2.9253,-2.9262,-2.9266,-2.9282,-2.9298,-2.9285,-2.9289,-2.9279,-2.9294,-2.9335,-2.9277,-2.9277,-2.9289,-2.9376,-2.9389,-2.9397,-2.9325,-2.9326,-2.9327,-2.9377,0,-2.9244,-2.9277,-2.9267,-2.93,-2.9315,-2.9296,-2.9313,-2.9316,-2.9313,-2.9325,-2.9321,-2.9333,-2.9313,-2.9316,-2.933,-2.9327,-2.9352,-2.9323,-2.934,-2.9341,-2.9342,-2.9405,-2.9418,-2.9465,-2.9383,-2.9384,-2.9385,0,-2.93,-2.9309,-2.9344,-2.9346,-2.9351,-2.9367,-2.9376,-2.9387,-2.9391,-2.9388,-2.9394,-2.9382,-2.9401,-2.9376,-2.9403,-2.9383,-2.939,-2.9389,-2.9391,-2.9393,-2.9366,-2.941,-2.9479,-2.9487,-2.9394,-2.9394,-2.9393,0,-2.9345,-2.9365,-2.9389,-2.9393,-2.9395,-2.9406,-2.9408,-2.941,-2.9418,-2.9426,-2.9431,-2.944,-2.9446,-2.9454,-2.9445,-2.9428,-2.9474,-2.9448,-2.9472,-2.9473,-2.9483,-2.9483,-2.9556,-2.9486,-2.9485,-2.9485,-2.9485,0,-2.9396,-2.9419,-2.9409,-2.9424,-2.9449,-2.9438,-2.9463,-2.9463,-2.9466,-2.948,-2.9464,-2.9478,-2.9465,-2.9478,-2.9472,-2.9496,-2.9498,-2.9496,-2.9494,-2.9498,-2.9499,-2.9503,-2.95,-2.9487,-2.9487,-2.9486,-2.9486,0,-2.945,-2.9445,-2.947,-2.9471,-2.9472,-2.9491,-2.9491,-2.9505,-2.9502,-2.9521,-2.9524,-2.9519,-2.9533,-2.9525,-2.954,-2.9535,-2.9567,-2.956,-2.9566,-2.9565,-2.959,-2.9588,-2.9669,-2.968,-2.9602,-2.9602,-2.9603,0,-2.9484,-2.9501,-2.9505,-2.9514,-2.9517,-2.9532,-2.954,-2.953,-2.9539,-2.9546,-2.956,-2.9573,-2.9584,-2.9608,-2.9605,-2.9616,-2.961,-2.9638,-2.9612,-2.9616,-2.9612,-2.9612,-2.9614,-2.9643,-2.9644,-2.9645,-2.9646,0,-2.9545,-2.9542,-2.9555,-2.9567,-2.9578,-2.9587,-2.9594,-2.9602,-2.9593,-2.9604,-2.9619,-2.9628,-2.9644,-2.9658,-2.9668,-2.9669,-2.9656,-2.9654,-2.966,-2.9665,-2.9669,-2.9669,-2.9582,-2.9652,-2.9651,-2.9651,-2.9651,-2.965,-2.9591,-2.9606,-2.9612,-2.9627,-2.9632,-2.964,-2.9654,-2.9653,-2.9666,-2.9679,-2.9672,-2.9691,-2.9696,-2.9709,-2.9712,-2.9726,-2.9715,-2.9724,-2.9726,-2.9729,-2.9733,-2.9666,-2.9728,-2.9727,-2.9727,-2.9727,-2.9727,0,-2.9653,-2.9656,-2.967,-2.9682,-2.9694,-2.9682,-2.969,-2.9701,-2.9718,-2.9724,-2.9735,-2.9754,-2.9768,-2.9767,-2.978,-2.9792,-2.9786,-2.9795,-2.9795,-2.9796,-2.9742,-2.9736,-2.98,-2.98,-2.98,-2.98,-2.98,-2.98,-2.9686,-2.9712,-2.971,-2.9739,-2.9742,-2.9761,-2.9767,-2.9774,-2.9779,-2.9802,-2.9814,-2.9813,-2.9816,-2.983,-2.9842,-2.9842,-2.9848,-2.986,-2.9857,-2.9806,-2.9799,-2.9792,-2.9787,-2.9861,-2.9861,-2.991,-2.991,-2.9911]}]]